Showing default

GAOFEN 2, 40118

Orbit data source: Space-Track

GAOFEN 2, 40118 is a payload satellite owned by GGKGJ (CN) in SSO that was launched on Tue, 19 Aug 2014 UTC via a CHANG ZHENG 4B launch vehicle from the Taiyaun Space Center, China (TSC). Payload-class satellites include a variety of spacecraft equipped with specific instruments for various scientific and technological missions. These include communications satellites like Starlink; space stations such as the ISS; scientific satellites like the Hubble; Earth observation satellites from companies like Planet Labs, Umbra, and HawkEye 360; GPS; miniature CubeSats for education and research; and military/defense satellites.

Loading next visibility...
Identifier
40118, 2014-049A
Orbit
SSO
Country
Flag of CNCN / PRC
Related business
Manufacturer
DFH
Mission
Operational Civil Imaging
Bus & Motor
LS-3000A, AOCS
Mass
2,100 kg wet, 2,100 kg dry
Launch date (UTC)
2014-08-19 (12 years ago)
Launch vehicle
CHANG ZHENG 4B
Launch site
Taiyaun Space Center, China (TSC)
Object type
Payload
Rocket body
Debris
Shape & HBR
Box + 2 Pan, 2.0 m
Radar Cross Section
4.991 m², Large (>1 m²)

Expand to show TLE details & history
Last TLE update: 5 hours ago

TLE from 5 hours ago
0 GAOFEN 2
1 40118U 14049A   26265.94311302  .00000544  00000-0  77062-4 0  9995
2 40118  98.0018 330.0098 0005900 279.1580  80.8964 14.81005955653705
Epoch: 2026-09-22T22:38Z
TLE epoch observation values (Epoch: 2026-09-22T22:38:04.964Z)
Latitude
-0.00011°
Longitude
-11.31221°
Altitude
628.519 km
Speed
7.545 km/s
True Right ascension
22h 00m 02s
True Declination
0° 00' 00"
Sunlit
Object was in full shadow at epoch
Visualization orbit readout
Latitude
Unknown
Longitude
Unknown
Altitude
Unknown
Speed
Unknown
Apparent Right ascension
Unknown
Apparent Declination
Unknown
Sunlit
N/A
Visualization observer readout
Local Sidereal Time
21:11:19
Azimuth
Unknown
Elevation
Unknown
Doppler factor
Unknown
Orbital elements
Apogee altitude
627.326 km
Perigee altitude
619.064 km
Semi-major axis
7,001.332 km
Eccentricity
0.00059
Inclination
98.0018°
RAAN
330.0098°
Arg. of periapsis
279.158°
True anomaly
80.96317°
Mean anomaly
80.8964°
Eccentric anomaly
80.92978°
Mean motion
3.70486 °/min
Orbital period
97.17 mins
BSTAR
0.000077062
Loading maneuver chart data...
Computing Atmospheric mass density...
Loading historical data...
Loading historical data...
Loading historical data...
Loading historical data...
Loading historical data...
Loading historical data...
Loading historical data...
Other satellites on launch #49 in the year 2014 (2014-08-19 UTC)

Documentation

Showing up to 5 results
|